Location: Ca�n Batista
(41.4099°N, 1.7752°E)
Time: 13:52:31
(UTC+00:00)

Cosmos 1933 Rocket - Pass Details

Date: 03 March 2021
Orbit: 606 x 630 km, 82.5° (Epoch: 21 April)

Event Time Altitude Azimuth Distance (km) Brightness Sun altitude
Rises 18:54:31 0° 182° (S) 2,854 7.0 -13.6°
Reaches altitude 10° 18:56:43 10° 181° (S) 1,957 6.1 -14.0°
Maximum altitude 19:01:02 75° 96° (E) 637 3.4 -14.9°
Drops below altitude 10° 19:05:26 10° 11° (N) 1,986 6.1 -15.7°
Sets 19:07:40 0° 10° (N) 2,900 7.0 -16.1°
